QPF
0.00 0.00 0.01 0.01 0.01 0.00 0.00 0.01 0.01 0.01 0.01 0.01 0.01 0.01 0.01 0.01 0.01 0.00 0.00 0.01 0.01 0.01 0.02 0.02 0.02 0.01 0.02 0.02 0.02 0.01 0.01 0.01 0.01 0.01 0.01 0.01 0.01 0.01 0.01 0.00 0.00 0.01 0.01
0.00 0.00 0.00 0.00 0.01 0.01 0.01 0.01 0.01 0.01 0.01 0.01 0.01 0.01 0.01 0.01 0.01 0.01 0.01 0.01 0.01 0.01 0.02 0.02 0.02 0.02 0.02 0.03 0.02 0.01 0.01 0.01 0.01 0.00 0.00 0.00 0.01 0.01 0.00 0.00 0.00 0.01 0.01
0.00 0.00 0.01 0.01 0.01 0.01 0.01 0.01 0.01 0.01 0.02 0.02 0.01 0.01 0.01 0.01 0.01 0.01 0.01 0.02 0.01 0.01 0.02 0.03 0.03 0.02 0.02 0.03 0.02 0.02 0.01 0.01 0.01 0.01 0.00 0.00 0.00 0.01 0.01 0.01 0.01 0.01 0.02
0.00 0.00 0.00 0.01 0.01 0.01 0.02 0.01 0.01 0.01 0.02 0.02 0.01 0.01 0.01 0.02 0.01 0.02 0.02 0.02 0.01 0.01 0.03 0.02 0.03 0.03 0.02 0.03 0.03 0.04 0.04 0.02 0.01 0.01 0.00 0.00 0.00 0.01 0.01 0.02 0.03 0.02 0.02
0.00 0.00 0.00 0.01 0.01 0.01 0.02 0.02 0.02 0.02 0.02 0.02 0.02 0.01 0.01 0.02 0.02 0.02 0.02 0.02 0.02 0.02 0.02 0.02 0.03 0.02 0.02 0.03 0.03 0.03 0.04 0.04 0.02 0.01 0.00 0.00 0.01 0.01 0.01 0.02 0.02 0.01 0.00
0.00 0.00 0.00 0.01 0.01 0.01 0.01 0.02 0.02 0.02 0.02 0.03 0.03 0.03 0.03 0.03 0.03 0.02 0.01 0.01 0.01 0.01 0.01 0.01 0.02 0.02 0.03 0.03 0.03 0.03 0.02 0.02 0.02 0.01 0.00 0.01 0.01 0.02 0.02 0.01 0.01 0.01 0.01
0.00 0.00 0.00 0.01 0.01 0.02 0.02 0.02 0.02 0.02 0.02 0.03 0.03 0.03 0.03 0.04 0.04 0.02 0.02 0.01 0.01 0.01 0.01 0.01 0.01 0.02 0.03 0.04 0.03 0.02 0.02 0.02 0.02 0.01 0.01 0.01 0.02 0.03 0.03 0.02 0.02 0.02 0.02
0.00 0.00 0.00 0.01 0.01 0.02 0.02 0.03 0.03 0.03 0.02 0.03 0.03 0.03 0.03 0.04 0.04 0.04 0.02 0.02 0.01 0.01 0.01 0.01 0.01 0.01 0.02 0.03 0.03 0.02 0.02 0.01 0.01 0.02 0.02 0.01 0.03 0.03 0.03 0.03 0.03 0.03 0.03
0.00 0.00 0.01 0.01 0.01 0.01 0.01 0.03 0.03 0.03 0.03 0.03 0.04 0.04 0.03 0.03 0.03 0.04 0.02 0.02 0.02 0.01 0.01 0.01 0.01 0.01 0.02 0.02 0.02 0.02 0.01 0.01 0.01 0.01 0.01 0.02 0.02 0.03 0.04 0.04 0.03 0.02 0.02
0.01 0.00 0.01 0.01 0.01 0.01 0.01 0.02 0.03 0.03 0.03 0.02 0.03 0.03 0.04 0.03 0.03 0.03 0.02 0.02 0.01 0.01 0.01 0.01 0.01 0.02 0.02 0.02 0.01 0.01 0.01 0.01 0.01 0.01 0.01 0.02 0.04 0.03 0.03 0.02 0.02 0.02 0.02
0.01 0.01 0.01 0.01 0.01 0.01 0.01 0.01 0.03 0.05 0.04 0.02 0.02 0.01 0.03 0.04 0.03 0.02 0.02 0.01 0.01 0.01 0.01 0.01 0.01 0.01 0.01 0.01 0.01 0.01 0.01 0.01 0.01 0.01 0.01 0.02 0.05 0.05 0.03 0.02 0.02 0.03 0.03
0.01 0.01 0.01 0.01 0.01 0.01 0.02 0.02 0.02 0.04 0.06 0.04 0.02 0.01 0.01 0.02 0.03 0.03 0.02 0.01 0.01 0.01 0.01 0.01 0.02 0.02 0.01 0.00 0.01 0.01 0.01 0.01 0.02 0.01 0.01 0.02 0.03 0.06 0.05 0.03 0.02 0.02 0.03
0.01 0.01 0.01 0.02 0.02 0.01 0.01 0.02 0.02 0.03 0.05 0.05 0.02 0.01 0.01 0.02 0.03 0.04 0.03 0.02 0.02 0.01 0.01 0.01 0.01 0.01 0.01 0.01 0.00 0.01 0.01 0.01 0.01 0.02 0.02 0.02 0.02 0.04 0.06 0.05 0.03 0.02 0.03
0.03 0.02 0.01 0.01 0.01 0.01 0.01 0.01 0.01 0.02 0.04 0.05 0.02 0.01 0.01 0.02 0.03 0.04 0.05 0.03 0.02 0.01 0.01 0.01 0.01 0.01 0.01 0.01 0.00 0.00 0.00 0.01 0.01 0.02 0.02 0.02 0.02 0.04 0.05 0.05 0.04 0.03 0.03
0.05 0.04 0.03 0.02 0.02 0.02 0.01 0.02 0.02 0.01 0.03 0.02 0.02 0.02 0.01 0.01 0.02 0.04 0.06 0.07 0.04 0.02 0.01 0.01 0.01 0.01 0.02 0.01 0.01 0.01 0.01 0.01 0.01 0.02 0.02 0.01 0.02 0.03 0.04 0.05 0.05 0.07 0.07
0.03 0.04 0.03 0.02 0.02 0.02 0.03 0.05 0.03 0.02 0.02 0.02 0.01 0.02 0.02 0.02 0.02 0.03 0.05 0.08 0.08 0.05 0.03 0.02 0.02 0.02 0.02 0.02 0.01 0.01 0.01 0.01 0.01 0.01 0.01 0.01 0.01 0.02 0.03 0.03 0.03 0.08 0.08
0.03 0.03 0.03 0.03 0.02 0.01 0.03 0.06 0.04 0.04 0.03 0.02 0.01 0.01 0.01 0.02 0.02 0.04 0.05 0.07 0.08 0.08 0.07 0.06 0.03 0.02 0.02 0.02 0.01 0.01 0.01 0.01 0.01 0.01 0.01 0.01 0.01 0.01 0.02 0.02 0.03 0.05 0.06
0.04 0.03 0.04 0.05 0.04 0.02 0.02 0.04 0.04 0.05 0.05 0.03 0.02 0.01 0.01 0.01 0.03 0.05 0.06 0.07 0.08 0.09 0.08 0.07 0.04 0.03 0.03 0.02 0.02 0.02 0.01 0.01 0.01 0.01 0.01 0.01 0.00 0.00 0.01 0.01 0.02 0.04 0.05
0.04 0.05 0.06 0.05 0.04 0.02 0.02 0.02 0.03 0.05 0.05 0.04 0.03 0.01 0.01 0.01 0.02 0.03 0.04 0.07 0.10 0.10 0.09 0.08 0.08 0.06 0.05 0.02 0.02 0.02 0.01 0.00 0.01 0.02 0.02 0.01 0.01 0.01 0.00 0.01 0.01 0.02 0.03
0.03 0.05 0.05 0.04 0.03 0.02 0.03 0.03 0.03 0.04 0.04 0.04 0.04 0.02 0.02 0.02 0.02 0.02 0.03 0.05 0.08 0.10 0.12 0.12 0.10 0.07 0.05 0.03 0.02 0.01 0.01 0.01 0.01 0.01 0.02 0.01 0.01 0.01 0.01 0.01 0.01 0.01 0.01
0.03 0.04 0.04 0.04 0.03 0.02 0.01 0.03 0.04 0.04 0.04 0.03 0.03 0.03 0.03 0.03 0.03 0.02 0.03 0.04 0.05 0.08 0.10 0.10 0.10 0.08 0.05 0.03 0.02 0.01 0.01 0.01 0.01 0.01 0.01 0.01 0.01 0.00 0.00 0.00 0.00 0.00 0.00
0.03 0.04 0.04 0.03 0.02 0.02 0.01 0.01 0.03 0.04 0.04 0.03 0.03 0.03 0.02 0.02 0.02 0.03 0.03 0.03 0.04 0.04 0.06 0.06 0.07 0.07 0.06 0.03 0.02 0.01 0.01 0.01 0.01 0.01 0.01 0.01 0.01 0.01 0.00 0.00 0.00 0.00 0.00
0.02 0.02 0.02 0.02 0.02 0.01 0.01 0.01 0.01 0.04 0.05 0.04 0.03 0.02 0.02 0.02 0.02 0.03 0.03 0.03 0.03 0.03 0.03 0.03 0.04 0.05 0.05 0.04 0.03 0.02 0.02 0.01 0.01 0.01 0.01 0.01 0.01 0.01 0.00 0.00 0.00 0.00 0.00
0.01 0.01 0.01 0.01 0.01 0.01 0.01 0.01 0.01 0.02 0.04 0.04 0.02 0.02 0.02 0.02 0.02 0.02 0.02 0.03 0.04 0.03 0.02 0.02 0.02 0.02 0.04 0.04 0.03 0.03 0.03 0.03 0.03 0.02 0.02 0.02 0.02 0.01 0.01 0.01 0.01 0.01 0.01
0.00 0.00 0.01 0.00 0.00 0.01 0.01 0.00 0.01 0.01 0.02 0.03 0.03 0.02 0.02 0.02 0.03 0.03 0.02 0.02 0.02 0.02 0.02 0.01 0.01 0.02 0.03 0.03 0.03 0.02 0.03 0.04 0.04 0.03 0.02 0.02 0.03 0.02 0.02 0.02 0.02 0.02 0.01
0.00 0.01 0.01 0.00 0.00 0.00 0.00 0.00 0.00 0.01 0.01 0.02 0.03 0.02 0.02 0.02 0.02 0.03 0.04 0.03 0.02 0.02 0.01 0.01 0.01 0.01 0.02 0.03 0.03 0.02 0.01 0.02 0.03 0.04 0.03 0.02 0.02 0.02 0.02 0.02 0.02 0.02 0.01
MSLP
1015.03 1014.44 1013.84 1013.29 1012.86 1012.56 1012.39 1012.35 1012.38 1012.46 1012.56 1012.67 1012.77 1012.88 1013.01 1013.15 1013.32 1013.48 1013.64 1013.78 1013.89 1014.00 1014.10 1014.22 1014.37 1014.57 1014.81 1015.07 1015.33 1015.57 1015.78 1015.94 1016.07 1016.18 1016.27 1016.37 1016.48 1016.60 1016.72 1016.83 1016.92 1016.98 1017.04
1015.19 1014.63 1014.04 1013.50 1013.05 1012.72 1012.51 1012.42 1012.41 1012.46 1012.55 1012.66 1012.80 1012.95 1013.12 1013.31 1013.50 1013.69 1013.85 1013.99 1014.10 1014.20 1014.31 1014.44 1014.62 1014.84 1015.09 1015.35 1015.61 1015.84 1016.03 1016.18 1016.29 1016.39 1016.49 1016.59 1016.71 1016.84 1016.96 1017.07 1017.16 1017.24 1017.29
1015.14 1014.63 1014.09 1013.59 1013.16 1012.83 1012.61 1012.49 1012.46 1012.48 1012.55 1012.66 1012.81 1012.98 1013.18 1013.40 1013.61 1013.81 1013.97 1014.11 1014.21 1014.32 1014.43 1014.58 1014.78 1015.02 1015.29 1015.57 1015.83 1016.06 1016.24 1016.39 1016.50 1016.60 1016.70 1016.82 1016.94 1017.08 1017.21 1017.33 1017.43 1017.51 1017.57
1014.91 1014.47 1014.00 1013.56 1013.18 1012.89 1012.68 1012.55 1012.49 1012.48 1012.53 1012.62 1012.75 1012.93 1013.14 1013.37 1013.60 1013.81 1013.98 1014.12 1014.24 1014.35 1014.48 1014.65 1014.86 1015.13 1015.42 1015.71 1015.99 1016.23 1016.42 1016.57 1016.69 1016.80 1016.91 1017.04 1017.18 1017.33 1017.47 1017.60 1017.71 1017.80 1017.88
1014.55 1014.19 1013.81 1013.46 1013.16 1012.92 1012.74 1012.60 1012.51 1012.46 1012.45 1012.50 1012.61 1012.77 1012.98 1013.22 1013.47 1013.70 1013.89 1014.05 1014.19 1014.32 1014.48 1014.67 1014.91 1015.20 1015.51 1015.83 1016.12 1016.37 1016.58 1016.74 1016.88 1017.00 1017.13 1017.27 1017.43 1017.58 1017.74 1017.88 1018.00 1018.11 1018.20
1014.16 1013.87 1013.59 1013.34 1013.13 1012.95 1012.80 1012.65 1012.52 1012.41 1012.34 1012.33 1012.38 1012.52 1012.72 1012.97 1013.23 1013.50 1013.73 1013.93 1014.11 1014.29 1014.47 1014.70 1014.97 1015.28 1015.61 1015.94 1016.25 1016.52 1016.75 1016.93 1017.08 1017.22 1017.36 1017.51 1017.68 1017.84 1018.01 1018.16 1018.30 1018.42 1018.52
1013.83 1013.61 1013.42 1013.27 1013.14 1013.03 1012.89 1012.74 1012.56 1012.37 1012.21 1012.12 1012.11 1012.20 1012.39 1012.65 1012.95 1013.27 1013.56 1013.82 1014.06 1014.28 1014.52 1014.77 1015.07 1015.39 1015.74 1016.09 1016.41 1016.69 1016.92 1017.12 1017.29 1017.45 1017.60 1017.76 1017.93 1018.11 1018.28 1018.44 1018.59 1018.72 1018.84
1013.62 1013.45 1013.35 1013.29 1013.24 1013.17 1013.05 1012.87 1012.63 1012.36 1012.11 1011.93 1011.85 1011.90 1012.07 1012.34 1012.69 1013.06 1013.42 1013.75 1014.05 1014.33 1014.61 1014.90 1015.22 1015.56 1015.91 1016.25 1016.58 1016.87 1017.11 1017.32 1017.50 1017.67 1017.84 1018.01 1018.18 1018.36 1018.54 1018.72 1018.87 1019.02 1019.15
1013.52 1013.40 1013.37 1013.39 1013.40 1013.37 1013.25 1013.04 1012.74 1012.39 1012.05 1011.78 1011.64 1011.65 1011.81 1012.10 1012.48 1012.91 1013.33 1013.74 1014.10 1014.44 1014.76 1015.07 1015.40 1015.74 1016.09 1016.43 1016.75 1017.04 1017.29 1017.51 1017.70 1017.88 1018.06 1018.24 1018.42 1018.61 1018.80 1018.97 1019.14 1019.30 1019.44
1013.49 1013.41 1013.43 1013.50 1013.56 1013.55 1013.44 1013.19 1012.84 1012.43 1012.02 1011.69 1011.50 1011.48 1011.64 1011.94 1012.36 1012.83 1013.31 1013.77 1014.19 1014.57 1014.92 1015.25 1015.59 1015.93 1016.27 1016.60 1016.91 1017.19 1017.45 1017.67 1017.87 1018.06 1018.25 1018.44 1018.63 1018.83 1019.02 1019.21 1019.39 1019.56 1019.71
1013.43 1013.38 1013.43 1013.54 1013.62 1013.63 1013.50 1013.24 1012.86 1012.42 1011.98 1011.63 1011.42 1011.39 1011.55 1011.87 1012.30 1012.81 1013.33 1013.82 1014.27 1014.68 1015.05 1015.40 1015.74 1016.07 1016.40 1016.72 1017.03 1017.31 1017.56 1017.79 1018.00 1018.20 1018.40 1018.60 1018.81 1019.02 1019.23 1019.43 1019.62 1019.80 1019.97
1013.27 1013.23 1013.29 1013.40 1013.48 1013.48 1013.36 1013.09 1012.72 1012.28 1011.85 1011.52 1011.33 1011.32 1011.49 1011.83 1012.28 1012.80 1013.34 1013.86 1014.33 1014.75 1015.13 1015.49 1015.83 1016.16 1016.49 1016.81 1017.11 1017.39 1017.64 1017.88 1018.10 1018.31 1018.52 1018.74 1018.95 1019.18 1019.40 1019.61 1019.82 1020.01 1020.19
1012.97 1012.90 1012.94 1013.02 1013.08 1013.06 1012.93 1012.68 1012.34 1011.95 1011.58 1011.31 1011.18 1011.22 1011.43 1011.79 1012.26 1012.79 1013.33 1013.85 1014.33 1014.76 1015.16 1015.53 1015.88 1016.22 1016.55 1016.87 1017.17 1017.46 1017.72 1017.96 1018.19 1018.41 1018.63 1018.85 1019.08 1019.31 1019.54 1019.77 1019.99 1020.20 1020.39
1012.53 1012.41 1012.38 1012.39 1012.39 1012.34 1012.20 1011.98 1011.70 1011.40 1011.13 1010.97 1010.93 1011.05 1011.31 1011.71 1012.19 1012.72 1013.26 1013.79 1014.27 1014.72 1015.13 1015.52 1015.90 1016.26 1016.61 1016.94 1017.25 1017.54 1017.81 1018.05 1018.29 1018.52 1018.74 1018.97 1019.20 1019.44 1019.67 1019.91 1020.14 1020.36 1020.56
1012.01 1011.82 1011.69 1011.60 1011.51 1011.40 1011.25 1011.06 1010.85 1010.66 1010.53 1010.50 1010.58 1010.80 1011.14 1011.57 1012.08 1012.61 1013.16 1013.68 1014.18 1014.65 1015.09 1015.52 1015.92 1016.32 1016.70 1017.05 1017.38 1017.68 1017.95 1018.20 1018.44 1018.66 1018.88 1019.11 1019.34 1019.57 1019.80 1020.04 1020.26 1020.49 1020.70
1011.53 1011.23 1010.97 1010.74 1010.54 1010.36 1010.18 1010.03 1009.91 1009.84 1009.85 1009.97 1010.18 1010.51 1010.92 1011.40 1011.93 1012.47 1013.02 1013.56 1014.07 1014.57 1015.06 1015.53 1015.99 1016.42 1016.84 1017.22 1017.57 1017.88 1018.16 1018.42 1018.65 1018.86 1019.08 1019.29 1019.50 1019.72 1019.94 1020.16 1020.38 1020.60 1020.81
1011.17 1010.75 1010.35 1009.98 1009.66 1009.39 1009.19 1009.06 1009.02 1009.08 1009.23 1009.48 1009.83 1010.25 1010.73 1011.24 1011.79 1012.34 1012.89 1013.44 1013.98 1014.52 1015.05 1015.58 1016.09 1016.58 1017.03 1017.45 1017.82 1018.15 1018.43 1018.68 1018.91 1019.12 1019.31 1019.51 1019.70 1019.89 1020.08 1020.28 1020.48 1020.68 1020.89
1011.00 1010.46 1009.93 1009.43 1009.00 1008.66 1008.43 1008.33 1008.36 1008.52 1008.80 1009.16 1009.61 1010.10 1010.62 1011.16 1011.71 1012.25 1012.80 1013.36 1013.92 1014.49 1015.07 1015.65 1016.22 1016.75 1017.25 1017.70 1018.09 1018.43 1018.73 1018.98 1019.20 1019.39 1019.58 1019.75 1019.91 1020.07 1020.23 1020.40 1020.57 1020.74 1020.93
1011.01 1010.40 1009.76 1009.16 1008.64 1008.24 1008.01 1007.94 1008.04 1008.29 1008.65 1009.11 1009.61 1010.14 1010.68 1011.20 1011.73 1012.24 1012.77 1013.32 1013.89 1014.49 1015.10 1015.72 1016.33 1016.90 1017.44 1017.91 1018.33 1018.69 1019.00 1019.25 1019.47 1019.66 1019.83 1019.98 1020.11 1020.24 1020.37 1020.49 1020.63 1020.77 1020.93
1011.17 1010.51 1009.82 1009.16 1008.60 1008.19 1007.97 1007.95 1008.11 1008.42 1008.86 1009.36 1009.89 1010.41 1010.92 1011.40 1011.87 1012.34 1012.82 1013.34 1013.90 1014.50 1015.12 1015.76 1016.39 1016.99 1017.55 1018.05 1018.49 1018.87 1019.19 1019.46 1019.68 1019.87 1020.03 1020.16 1020.27 1020.37 1020.46 1020.55 1020.65 1020.76 1020.88
1011.39 1010.73 1010.03 1009.38 1008.83 1008.45 1008.28 1008.31 1008.54 1008.91 1009.38 1009.90 1010.42 1010.91 1011.35 1011.76 1012.15 1012.54 1012.95 1013.42 1013.93 1014.50 1015.11 1015.75 1016.38 1016.99 1017.56 1018.08 1018.54 1018.94 1019.28 1019.56 1019.80 1019.99 1020.14 1020.26 1020.36 1020.43 1020.49 1020.55 1020.61 1020.69 1020.78
1011.59 1010.98 1010.33 1009.73 1009.24 1008.94 1008.84 1008.95 1009.24 1009.66 1010.15 1010.66 1011.14 1011.57 1011.93 1012.24 1012.53 1012.82 1013.15 1013.54 1013.99 1014.51 1015.08 1015.68 1016.30 1016.90 1017.47 1018.00 1018.47 1018.89 1019.25 1019.55 1019.80 1020.00 1020.16 1020.27 1020.34 1020.40 1020.43 1020.46 1020.50 1020.55 1020.62
1011.72 1011.20 1010.63 1010.12 1009.74 1009.53 1009.53 1009.72 1010.08 1010.53 1011.04 1011.52 1011.95 1012.30 1012.58 1012.79 1012.98 1013.17 1013.40 1013.70 1014.08 1014.52 1015.04 1015.59 1016.17 1016.74 1017.30 1017.82 1018.30 1018.73 1019.11 1019.43 1019.69 1019.90 1020.06 1020.16 1020.23 1020.26 1020.28 1020.29 1020.31 1020.34 1020.39
1011.77 1011.35 1010.90 1010.51 1010.24 1010.15 1010.24 1010.51 1010.92 1011.40 1011.90 1012.35 1012.73 1013.01 1013.20 1013.33 1013.43 1013.53 1013.68 1013.90 1014.19 1014.57 1015.01 1015.50 1016.03 1016.56 1017.09 1017.60 1018.07 1018.51 1018.89 1019.22 1019.50 1019.71 1019.86 1019.96 1020.02 1020.04 1020.04 1020.03 1020.04 1020.06 1020.10
1011.80 1011.48 1011.14 1010.86 1010.70 1010.71 1010.88 1011.21 1011.65 1012.14 1012.62 1013.04 1013.37 1013.59 1013.72 1013.79 1013.83 1013.87 1013.96 1014.11 1014.34 1014.64 1015.02 1015.45 1015.92 1016.40 1016.89 1017.37 1017.83 1018.26 1018.65 1018.98 1019.25 1019.46 1019.61 1019.70 1019.75 1019.75 1019.74 1019.73 1019.73 1019.74 1019.77
1011.85 1011.63 1011.39 1011.20 1011.13 1011.20 1011.43 1011.78 1012.22 1012.69 1013.14 1013.51 1013.80 1013.98 1014.08 1014.12 1014.13 1014.15 1014.21 1014.32 1014.51 1014.76 1015.08 1015.45 1015.86 1016.29 1016.74 1017.19 1017.62 1018.03 1018.41 1018.73 1019.00 1019.20 1019.34 1019.42 1019.45 1019.45 1019.43 1019.41 1019.40 1019.41 1019.43
Thickness
5725 5727 5727 5727 5726 5725 5725 5725 5725 5725 5725 5725 5725 5724 5724 5724 5724 5723 5723 5723 5723 5723 5723 5723 5723 5722 5722 5721 5721 5721 5721 5720 5720 5720 5719 5719 5719 5718 5717 5717 5717 5717 5716
5727 5726 5725 5725 5724 5723 5723 5722 5722 5722 5722 5722 5722 5722 5722 5722 5722 5721 5721 5721 5721 5720 5721 5720 5720 5720 5719 5719 5718 5718 5718 5717 5717 5717 5717 5716 5716 5716 5715 5715 5715 5714 5714
5724 5723 5722 5721 5721 5720 5720 5719 5719 5719 5719 5719 5719 5719 5719 5719 5719 5719 5718 5718 5718 5718 5718 5717 5717 5717 5716 5716 5716 5715 5715 5714 5714 5714 5714 5714 5713 5713 5713 5713 5712 5712 5711
5721 5719 5719 5718 5717 5716 5716 5715 5715 5715 5716 5716 5716 5716 5716 5716 5716 5716 5716 5715 5715 5715 5714 5714 5713 5713 5713 5713 5713 5713 5712 5711 5711 5711 5711 5711 5711 5711 5711 5710 5710 5709 5708
5716 5715 5714 5714 5713 5712 5712 5712 5712 5712 5712 5712 5712 5713 5713 5713 5713 5713 5712 5712 5712 5711 5711 5710 5710 5710 5709 5710 5710 5710 5709 5709 5708 5708 5708 5708 5708 5708 5708 5707 5707 5706 5706
5711 5710 5710 5709 5709 5708 5708 5707 5707 5707 5707 5708 5708 5708 5709 5709 5709 5709 5708 5708 5708 5707 5707 5706 5706 5706 5706 5706 5706 5706 5706 5705 5705 5705 5705 5705 5705 5705 5705 5704 5704 5703 5702
5705 5705 5705 5704 5704 5703 5703 5703 5703 5703 5703 5703 5704 5704 5704 5705 5705 5704 5704 5704 5703 5703 5703 5703 5703 5703 5703 5703 5703 5703 5702 5702 5702 5701 5701 5702 5702 5702 5702 5701 5700 5700 5699
5700 5699 5699 5699 5699 5698 5698 5698 5698 5698 5698 5698 5699 5699 5699 5700 5700 5700 5700 5699 5699 5699 5699 5699 5699 5699 5699 5699 5700 5699 5699 5698 5698 5697 5697 5698 5698 5698 5698 5698 5697 5696 5695
5694 5693 5693 5693 5693 5692 5692 5692 5692 5693 5693 5693 5694 5694 5694 5694 5695 5695 5695 5694 5694 5694 5694 5695 5695 5695 5695 5695 5695 5695 5695 5694 5694 5694 5694 5694 5694 5694 5694 5693 5693 5692 5691
5687 5687 5686 5686 5686 5686 5686 5686 5686 5687 5687 5688 5688 5688 5689 5689 5689 5689 5690 5689 5689 5690 5690 5690 5690 5690 5690 5691 5690 5690 5690 5690 5690 5690 5690 5690 5690 5690 5689 5689 5688 5687 5686
5679 5679 5680 5680 5680 5680 5680 5680 5680 5680 5681 5682 5682 5683 5683 5683 5683 5684 5684 5684 5684 5685 5685 5685 5685 5685 5685 5685 5685 5685 5685 5685 5685 5685 5685 5685 5685 5685 5684 5683 5683 5682 5681
5671 5672 5673 5674 5674 5674 5674 5674 5674 5674 5675 5676 5677 5677 5677 5678 5678 5678 5678 5679 5679 5679 5680 5680 5680 5680 5680 5680 5680 5680 5680 5680 5680 5680 5680 5680 5680 5680 5679 5678 5677 5677 5676
5667 5667 5667 5668 5668 5668 5668 5668 5667 5668 5668 5669 5671 5672 5672 5672 5672 5672 5672 5672 5673 5673 5674 5674 5674 5674 5674 5674 5674 5674 5674 5674 5674 5675 5675 5675 5675 5674 5674 5673 5672 5671 5671
5661 5662 5662 5662 5662 5662 5662 5662 5662 5662 5663 5664 5665 5666 5666 5666 5666 5666 5666 5666 5667 5667 5667 5668 5668 5668 5668 5668 5668 5668 5668 5668 5668 5668 5669 5669 5669 5669 5668 5667 5666 5666 5665
5655 5656 5657 5657 5657 5657 5656 5657 5657 5657 5658 5659 5659 5660 5661 5661 5661 5661 5661 5661 5661 5661 5661 5661 5661 5662 5662 5662 5662 5662 5662 5661 5661 5662 5662 5662 5662 5662 5662 5661 5660 5660 5659
5651 5651 5651 5652 5652 5652 5651 5652 5652 5652 5652 5653 5654 5655 5656 5656 5656 5656 5655 5655 5655 5656 5655 5655 5655 5655 5655 5655 5655 5655 5655 5655 5655 5655 5655 5655 5655 5655 5655 5654 5654 5654 5654
5646 5646 5646 5647 5647 5647 5646 5646 5646 5647 5647 5648 5648 5649 5650 5651 5651 5651 5650 5650 5650 5650 5650 5649 5649 5648 5648 5647 5647 5647 5647 5647 5647 5647 5647 5647 5647 5647 5647 5647 5647 5647 5647
5641 5641 5641 5642 5641 5641 5641 5640 5641 5641 5642 5642 5643 5643 5644 5645 5645 5645 5644 5644 5644 5644 5643 5643 5642 5641 5640 5639 5639 5639 5639 5639 5639 5639 5639 5639 5639 5639 5639 5639 5639 5639 5639
5636 5636 5635 5636 5635 5635 5634 5634 5634 5635 5635 5636 5637 5637 5638 5639 5639 5639 5638 5638 5638 5637 5637 5637 5635 5635 5632 5631 5631 5631 5631 5631 5631 5631 5631 5630 5630 5631 5631 5631 5631 5630 5630
5629 5630 5630 5629 5629 5628 5627 5626 5626 5627 5628 5629 5630 5631 5632 5632 5632 5632 5631 5631 5631 5630 5629 5629 5627 5627 5626 5624 5623 5621 5621 5622 5622 5622 5622 5622 5622 5622 5622 5622 5622 5621 5621
5621 5621 5623 5622 5621 5620 5619 5619 5619 5619 5620 5621 5622 5624 5625 5625 5625 5625 5625 5624 5624 5623 5622 5622 5620 5618 5617 5616 5614 5611 5610 5611 5612 5613 5613 5613 5613 5613 5613 5612 5612 5612 5612
5613 5614 5615 5616 5615 5615 5615 5615 5614 5613 5613 5614 5616 5617 5617 5618 5618 5618 5618 5617 5617 5616 5614 5614 5614 5610 5608 5609 5607 5603 5600 5600 5602 5604 5603 5604 5603 5603 5603 5603 5602 5602 5602
5605 5606 5609 5609 5609 5609 5608 5606 5605 5604 5604 5605 5607 5608 5610 5611 5611 5611 5611 5610 5609 5609 5608 5607 5607 5605 5601 5600 5601 5599 5594 5592 5591 5593 5593 5594 5594 5594 5594 5593 5593 5592 5592
5598 5599 5600 5601 5601 5601 5600 5599 5599 5599 5599 5600 5601 5601 5601 5603 5603 5603 5603 5602 5602 5602 5601 5600 5599 5599 5596 5593 5591 5591 5591 5590 5585 5582 5582 5583 5584 5584 5584 5584 5584 5583 5583
5588 5589 5591 5592 5593 5593 5593 5593 5592 5592 5592 5592 5592 5592 5593 5594 5594 5595 5595 5595 5594 5594 5593 5593 5592 5591 5590 5588 5585 5583 5581 5579 5579 5576 5574 5573 5574 5575 5575 5575 5574 5574 5573
5577 5579 5581 5583 5584 5585 5585 5585 5585 5584 5584 5583 5583 5584 5584 5585 5586 5587 5587 5587 5587 5586 5586 5585 5584 5584 5583 5581 5580 5578 5576 5574 5571 5569 5566 5564 5564 5566 5566 5566 5565 5564 5564